CSN3918 ZSWX-ZGGG

Flight info

Callsign CSN3918
Flight time 2h 19m
Altitude 31100
Route DCT SASAN R343 OLRIS A470 AKDIM/K0878S0980 A470 DUBGO W134 ELNEX A599 PLT W19 OLPAB OLPAB9
Aircraft A320/M-SDE2E3FGILRWXY/LB2

Departure

Time 2026-05-07 08:31
Airport Sunan Shuofang International Airport (ZSWX)

Arrival

Time 2026-05-07 10:50
Airport Guangzhou Baiyun International Airport (ZGGG)
Time Latitude Longitude Altitude Speed Heading
2026-05-07 08:07 31.50827 120.43093 30 ft 0 kts 290°
2026-05-07 08:20 31.50823 120.43106 22 ft 4 kts 288°
2026-05-07 08:20 31.50816 120.43137 28 ft 4 kts 278°
2026-05-07 08:20 31.50815 120.43167 29 ft 4 kts 255°
2026-05-07 08:21 31.50826 120.43189 30 ft 2 kts 200°
2026-05-07 08:21 31.50831 120.43191 31 ft 0 kts 200°
2026-05-07 08:24 31.50821 120.43186 27 ft 4 kts 200°
2026-05-07 08:24 31.50786 120.43174 26 ft 6 kts 189°
2026-05-07 08:24 31.50751 120.43199 30 ft 7 kts 114°
2026-05-07 08:24 31.50712 120.43228 29 ft 8 kts 183°
2026-05-07 08:25 31.50655 120.43204 29 ft 9 kts 200°
2026-05-07 08:25 31.50588 120.43175 28 ft 11 kts 200°
2026-05-07 08:25 31.50509 120.43141 31 ft 13 kts 200°
2026-05-07 08:25 31.50419 120.43102 29 ft 15 kts 200°
2026-05-07 08:26 31.50203 120.43009 28 ft 19 kts 200°
2026-05-07 08:26 31.50073 120.42953 24 ft 21 kts 200°
2026-05-07 08:26 31.49930 120.42891 24 ft 23 kts 200°
2026-05-07 08:27 31.49774 120.42824 24 ft 25 kts 200°
2026-05-07 08:27 31.49606 120.42752 25 ft 26 kts 200°
2026-05-07 08:27 31.49428 120.42675 26 ft 28 kts 200°
2026-05-07 08:27 31.49238 120.42594 26 ft 30 kts 200°
2026-05-07 08:28 31.49040 120.42509 24 ft 32 kts 200°
2026-05-07 08:28 31.48846 120.42424 24 ft 27 kts 200°
2026-05-07 08:28 31.48699 120.42362 24 ft 16 kts 200°
2026-05-07 08:28 31.48610 120.42323 24 ft 13 kts 200°
2026-05-07 08:29 31.48529 120.42300 23 ft 11 kts 167°
2026-05-07 08:29 31.48465 120.42360 24 ft 13 kts 140°
2026-05-07 08:29 31.48402 120.42439 25 ft 14 kts 103°
2026-05-07 08:29 31.48456 120.42509 24 ft 0 kts 19°
2026-05-07 08:30 31.48461 120.42511 23 ft 2 kts 19°
2026-05-07 08:30 31.48560 120.42553 24 ft 45 kts 20°
2026-05-07 08:30 31.49054 120.42766 23 ft 106 kts 20°
2026-05-07 08:30 31.49899 120.43120 36 ft 150 kts 18°
2026-05-07 08:31 31.50902 120.43584 549 ft 157 kts 20°
2026-05-07 08:31 31.51922 120.44026 1221 ft 156 kts 16°
2026-05-07 08:31 31.52976 120.44472 1609 ft 170 kts 17°
2026-05-07 08:31 31.54164 120.44973 1872 ft 193 kts 17°
2026-05-07 08:32 31.55475 120.45529 2341 ft 207 kts 18°
2026-05-07 08:32 31.56828 120.46110 3175 ft 206 kts 17°
2026-05-07 08:32 31.58190 120.46699 3886 ft 211 kts 18°
2026-05-07 08:32 31.59568 120.47294 4556 ft 218 kts 18°
2026-05-07 08:33 31.61015 120.47915 5140 ft 224 kts 16°
2026-05-07 08:33 31.62496 120.48551 5794 ft 228 kts 17°
2026-05-07 08:33 31.64037 120.48974 6438 ft 228 kts 353°
2026-05-07 08:33 31.65507 120.48437 7041 ft 220 kts 320°
2026-05-07 08:34 31.66465 120.47103 7698 ft 214 kts 290°
2026-05-07 08:34 31.66937 120.45463 8293 ft 218 kts 286°
2026-05-07 08:34 31.67399 120.43765 8959 ft 220 kts 286°
2026-05-07 08:34 31.67830 120.42039 9638 ft 220 kts 277°
2026-05-07 08:35 31.67728 120.40258 10264 ft 222 kts 253°
2026-05-07 08:35 31.66929 120.38652 10643 ft 242 kts 226°
2026-05-07 08:35 31.65521 120.37386 10876 ft 268 kts 218°
2026-05-07 08:35 31.63930 120.36071 11101 ft 291 kts 218°
2026-05-07 08:36 31.62235 120.34666 11287 ft 314 kts 218°
2026-05-07 08:36 31.60481 120.33011 11417 ft 334 kts 225°
2026-05-07 08:36 31.58546 120.31363 11582 ft 358 kts 206°
2026-05-07 08:36 31.56111 120.30509 12067 ft 370 kts 195°
2026-05-07 08:37 31.53551 120.29999 12704 ft 377 kts 192°
2026-05-07 08:37 31.50932 120.29614 13328 ft 381 kts 191°
2026-05-07 08:37 31.48288 120.29222 13899 ft 385 kts 192°
2026-05-07 08:37 31.45629 120.28758 14420 ft 387 kts 193°
2026-05-07 08:38 31.42968 120.28213 14943 ft 389 kts 195°
2026-05-07 08:38 31.40337 120.27613 15440 ft 392 kts 196°
2026-05-07 08:38 31.37660 120.26969 15967 ft 393 kts 196°
2026-05-07 08:38 31.34963 120.26308 16482 ft 396 kts 196°
2026-05-07 08:39 31.32256 120.25652 16971 ft 399 kts 196°
2026-05-07 08:39 31.29521 120.25003 17447 ft 403 kts 196°
2026-05-07 08:39 31.26761 120.24356 17932 ft 406 kts 196°
2026-05-07 08:39 31.23976 120.23708 18376 ft 410 kts 196°
2026-05-07 08:40 31.21171 120.23058 18792 ft 413 kts 196°
2026-05-07 08:40 31.18387 120.22413 19214 ft 415 kts 196°
2026-05-07 08:40 31.15545 120.21759 19645 ft 416 kts 196°
2026-05-07 08:40 31.12700 120.21106 20140 ft 417 kts 197°
2026-05-07 08:41 31.09851 120.20450 20601 ft 418 kts 197°
2026-05-07 08:41 31.06986 120.19788 21028 ft 420 kts 197°
2026-05-07 08:41 31.04105 120.19123 21433 ft 422 kts 197°
2026-05-07 08:41 31.01218 120.18457 21836 ft 424 kts 197°
2026-05-07 08:42 30.98353 120.17794 22217 ft 426 kts 197°
2026-05-07 08:42 30.95442 120.17118 22593 ft 428 kts 197°
2026-05-07 08:42 30.92514 120.16439 22945 ft 430 kts 196°
2026-05-07 08:42 30.89574 120.15758 23285 ft 432 kts 196°
2026-05-07 08:43 30.86618 120.15076 23615 ft 434 kts 196°
2026-05-07 08:43 30.83642 120.14391 23909 ft 436 kts 196°
2026-05-07 08:43 30.80655 120.13706 24201 ft 438 kts 196°
2026-05-07 08:43 30.77655 120.13017 24488 ft 440 kts 196°
2026-05-07 08:44 30.74683 120.12337 24768 ft 442 kts 196°
2026-05-07 08:44 30.71657 120.11645 25055 ft 444 kts 197°
2026-05-07 08:44 30.68611 120.10944 25292 ft 447 kts 196°
2026-05-07 08:44 30.65549 120.10236 25560 ft 450 kts 197°
2026-05-07 08:45 30.62469 120.09527 25836 ft 452 kts 197°
2026-05-07 08:45 30.59372 120.08817 26118 ft 455 kts 197°
2026-05-07 08:45 30.56260 120.08106 26474 ft 455 kts 197°
2026-05-07 08:45 30.53196 120.07408 26884 ft 454 kts 197°
2026-05-07 08:46 30.50095 120.06702 27281 ft 454 kts 197°
2026-05-07 08:46 30.46997 120.05992 27652 ft 454 kts 198°
2026-05-07 08:46 30.43972 120.05040 28018 ft 448 kts 206°
2026-05-07 08:46 30.41154 120.03579 28409 ft 440 kts 215°
2026-05-07 08:47 30.38507 120.01811 28823 ft 439 kts 216°
2026-05-07 08:47 30.35861 120.00040 29258 ft 439 kts 216°
2026-05-07 08:47 30.33217 119.98279 29697 ft 438 kts 216°
2026-05-07 08:47 30.30572 119.96522 30121 ft 438 kts 216°
2026-05-07 08:48 30.27970 119.94793 30530 ft 436 kts 216°
2026-05-07 08:48 30.25348 119.93052 31001 ft 433 kts 217°
2026-05-07 08:48 30.22739 119.91324 31502 ft 430 kts 217°
2026-05-07 08:48 30.20151 119.89610 31917 ft 428 kts 217°
2026-05-07 08:49 30.17576 119.87900 32021 ft 429 kts 217°
2026-05-07 08:49 30.14978 119.86173 32050 ft 431 kts 217°
2026-05-07 08:49 30.09764 119.82710 32050 ft 433 kts 217°
2026-05-07 08:50 30.04561 119.79272 32040 ft 435 kts 217°
2026-05-07 08:50 29.99330 119.75779 32056 ft 433 kts 218°
2026-05-07 08:51 29.94127 119.72268 32051 ft 433 kts 218°
2026-05-07 08:51 29.88925 119.68759 32058 ft 433 kts 218°
2026-05-07 08:52 29.83784 119.65244 32042 ft 431 kts 219°
2026-05-07 08:52 29.78819 119.61409 32030 ft 428 kts 222°
2026-05-07 08:53 29.73950 119.57463 32017 ft 427 kts 222°
2026-05-07 08:53 29.69674 119.54064 32033 ft 429 kts 221°
2026-05-07 08:54 29.64738 119.50214 32042 ft 428 kts 223°
2026-05-07 08:54 29.60500 119.45619 32012 ft 416 kts 234°
2026-05-07 08:55 29.56615 119.40658 32034 ft 419 kts 234°
2026-05-07 08:55 29.52822 119.35842 32039 ft 418 kts 234°
2026-05-07 08:56 29.48961 119.30928 32045 ft 417 kts 234°
2026-05-07 08:56 29.45085 119.25983 32040 ft 417 kts 234°
2026-05-07 08:57 29.41208 119.21048 32030 ft 417 kts 234°
2026-05-07 08:57 29.37319 119.16118 32026 ft 417 kts 233°
2026-05-07 08:58 29.33447 119.11225 32027 ft 417 kts 233°
2026-05-07 08:58 29.29547 119.06298 32024 ft 417 kts 234°
2026-05-07 08:59 29.25644 119.01381 32039 ft 417 kts 233°
2026-05-07 08:59 29.21742 118.96469 32030 ft 416 kts 233°
2026-05-07 09:00 29.17869 118.91605 32033 ft 416 kts 233°
2026-05-07 09:00 29.13973 118.86719 32039 ft 415 kts 233°
2026-05-07 09:01 29.10073 118.81842 32039 ft 416 kts 233°
2026-05-07 09:01 29.06179 118.76961 32052 ft 416 kts 233°
2026-05-07 09:02 29.02316 118.72127 32019 ft 414 kts 233°
2026-05-07 09:02 28.98433 118.67275 32022 ft 413 kts 233°
2026-05-07 09:03 28.94558 118.62433 32034 ft 412 kts 233°
2026-05-07 09:03 28.90687 118.57611 32029 ft 412 kts 233°
2026-05-07 09:04 28.86846 118.52821 32033 ft 411 kts 233°
2026-05-07 09:04 28.82985 118.48010 32012 ft 410 kts 232°
2026-05-07 09:05 28.79102 118.43184 32029 ft 414 kts 232°
2026-05-07 09:05 28.75196 118.38346 32031 ft 415 kts 232°
2026-05-07 09:06 28.71295 118.33522 32031 ft 412 kts 233°
2026-05-07 09:06 28.67446 118.28760 32034 ft 411 kts 233°
2026-05-07 09:07 28.63573 118.23973 32012 ft 411 kts 232°
2026-05-07 09:07 28.59694 118.19186 32000 ft 414 kts 232°
2026-05-07 09:08 28.56245 118.14932 32007 ft 417 kts 232°
2026-05-07 09:08 28.52595 118.10433 32011 ft 419 kts 231°
2026-05-07 09:09 28.48641 118.05566 32012 ft 419 kts 232°
2026-05-07 09:09 28.44678 118.00704 32025 ft 419 kts 232°
2026-05-07 09:10 28.40737 117.95872 32012 ft 421 kts 231°
2026-05-07 09:10 28.36685 117.91037 32012 ft 424 kts 230°
2026-05-07 09:11 28.32571 117.86225 32021 ft 425 kts 230°
2026-05-07 09:11 28.28451 117.81398 32022 ft 426 kts 230°
2026-05-07 09:12 28.24335 117.76556 32020 ft 427 kts 230°
2026-05-07 09:12 28.20231 117.71714 32016 ft 430 kts 230°
2026-05-07 09:13 28.16075 117.66825 32025 ft 431 kts 230°
2026-05-07 09:13 28.11903 117.61933 32028 ft 432 kts 230°
2026-05-07 09:14 28.07721 117.57036 32028 ft 433 kts 230°
2026-05-07 09:14 28.03565 117.52166 32029 ft 433 kts 230°
2026-05-07 09:15 27.99379 117.47254 32015 ft 435 kts 230°
2026-05-07 09:15 27.95159 117.42315 32034 ft 437 kts 229°
2026-05-07 09:16 27.90923 117.37367 32024 ft 438 kts 229°
2026-05-07 09:16 27.86693 117.32450 32025 ft 439 kts 229°
2026-05-07 09:17 27.82432 117.27499 32032 ft 440 kts 229°
2026-05-07 09:17 27.78170 117.22540 32022 ft 440 kts 229°
2026-05-07 09:18 27.73902 117.17575 32020 ft 442 kts 229°
2026-05-07 09:18 27.69649 117.12633 32030 ft 442 kts 229°
2026-05-07 09:19 27.65366 117.07664 32024 ft 442 kts 229°
2026-05-07 09:19 27.61061 117.02689 32037 ft 442 kts 229°
2026-05-07 09:20 27.56794 116.97753 32010 ft 442 kts 229°
2026-05-07 09:20 27.52495 116.92783 32015 ft 443 kts 229°
2026-05-07 09:21 27.48200 116.87792 32019 ft 444 kts 230°
2026-05-07 09:21 27.43956 116.82808 32025 ft 444 kts 230°
2026-05-07 09:22 27.39678 116.77803 32026 ft 444 kts 230°
2026-05-07 09:22 27.35395 116.72800 32011 ft 444 kts 230°
2026-05-07 09:23 27.31104 116.67791 32013 ft 445 kts 230°
2026-05-07 09:23 27.26805 116.62783 32018 ft 445 kts 230°
2026-05-07 09:24 27.22530 116.57802 32020 ft 446 kts 230°
2026-05-07 09:24 27.18240 116.52772 32026 ft 446 kts 230°
2026-05-07 09:25 27.14034 116.47658 32022 ft 445 kts 231°
2026-05-07 09:25 27.09845 116.42533 32025 ft 446 kts 231°
2026-05-07 09:26 27.05674 116.37480 32028 ft 446 kts 231°
2026-05-07 09:26 27.01458 116.32380 32030 ft 446 kts 231°
2026-05-07 09:27 26.97232 116.27287 32028 ft 446 kts 230°
2026-05-07 09:28 26.90919 116.19700 32037 ft 444 kts 231°
2026-05-07 09:28 26.86731 116.14613 32028 ft 444 kts 231°
2026-05-07 09:29 26.82563 116.09518 32023 ft 443 kts 231°
2026-05-07 09:29 26.78424 116.04472 32021 ft 443 kts 231°
2026-05-07 09:30 26.74246 115.99396 32023 ft 443 kts 231°
2026-05-07 09:30 26.70058 115.94320 32001 ft 444 kts 231°
2026-05-07 09:31 26.65867 115.89251 32005 ft 445 kts 231°
2026-05-07 09:31 26.61697 115.84204 32014 ft 445 kts 231°
2026-05-07 09:32 26.57492 115.79113 32006 ft 445 kts 231°
2026-05-07 09:32 26.53286 115.74032 32000 ft 446 kts 231°
2026-05-07 09:33 26.49074 115.68956 31989 ft 446 kts 231°
2026-05-07 09:33 26.44877 115.63912 31989 ft 447 kts 231°
2026-05-07 09:34 26.40641 115.58819 31990 ft 448 kts 231°
2026-05-07 09:34 26.36403 115.53721 31988 ft 448 kts 231°
2026-05-07 09:35 26.32156 115.48636 31995 ft 448 kts 231°
2026-05-07 09:35 26.28085 115.43758 32003 ft 448 kts 231°
2026-05-07 09:36 26.23830 115.38660 31984 ft 449 kts 231°
2026-05-07 09:36 26.19570 115.33569 31985 ft 450 kts 231°
2026-05-07 09:37 26.15311 115.28482 31989 ft 449 kts 231°
2026-05-07 09:37 26.11072 115.23423 31991 ft 449 kts 231°
2026-05-07 09:38 26.06814 115.18336 31995 ft 449 kts 231°
2026-05-07 09:38 26.02556 115.13261 31997 ft 449 kts 231°
2026-05-07 09:39 25.98288 115.08185 31999 ft 449 kts 230°
2026-05-07 09:39 25.94042 115.03147 32002 ft 449 kts 230°
2026-05-07 09:40 25.89769 114.98078 32008 ft 448 kts 230°
2026-05-07 09:40 25.85509 114.93028 32010 ft 447 kts 230°
2026-05-07 09:41 25.80776 114.88528 31984 ft 455 kts 215°
2026-05-07 09:41 25.74842 114.86006 31974 ft 468 kts 197°
2026-05-07 09:42 25.68475 114.84431 31977 ft 469 kts 197°
2026-05-07 09:42 25.62089 114.82843 31980 ft 470 kts 197°
2026-05-07 09:43 25.55741 114.81268 31982 ft 470 kts 197°
2026-05-07 09:43 25.49345 114.79687 31971 ft 471 kts 197°
2026-05-07 09:44 25.42930 114.78097 31975 ft 472 kts 197°
2026-05-07 09:44 25.36554 114.76522 31978 ft 473 kts 197°
2026-05-07 09:45 25.30134 114.74937 31984 ft 473 kts 197°
2026-05-07 09:45 25.23708 114.73346 31974 ft 474 kts 197°
2026-05-07 09:46 25.17260 114.71758 31976 ft 475 kts 197°
2026-05-07 09:46 25.10797 114.70166 31984 ft 476 kts 197°
2026-05-07 09:47 25.04373 114.68581 31992 ft 476 kts 197°
2026-05-07 09:47 24.97909 114.66995 31989 ft 476 kts 197°
2026-05-07 09:48 24.91442 114.65411 31987 ft 476 kts 197°
2026-05-07 09:48 24.85016 114.63837 31992 ft 476 kts 197°
2026-05-07 09:49 24.78554 114.62246 32002 ft 476 kts 197°
2026-05-07 09:49 24.72105 114.60626 31989 ft 474 kts 200°
2026-05-07 09:50 24.66170 114.57724 31994 ft 465 kts 214°
2026-05-07 09:50 24.60600 114.54179 31993 ft 465 kts 214°
2026-05-07 09:51 24.54984 114.50638 31996 ft 466 kts 214°
2026-05-07 09:51 24.49352 114.47102 31998 ft 466 kts 214°
2026-05-07 09:52 24.43723 114.43556 31987 ft 467 kts 214°
2026-05-07 09:52 24.38108 114.40016 31986 ft 469 kts 214°
2026-05-07 09:53 24.32435 114.36461 31994 ft 470 kts 214°
2026-05-07 09:53 24.26764 114.32904 32003 ft 470 kts 214°
2026-05-07 09:54 24.21120 114.29373 32000 ft 470 kts 214°
2026-05-07 09:54 24.15433 114.25821 31984 ft 471 kts 213°
2026-05-07 09:55 24.10009 114.21875 31980 ft 465 kts 226°
2026-05-07 09:55 24.05960 114.16469 31568 ft 458 kts 244°
2026-05-07 09:55 24.04464 114.13400 31098 ft 457 kts 246°
2026-05-07 09:56 24.03002 114.10355 30639 ft 459 kts 246°
2026-05-07 09:56 24.01510 114.07257 30190 ft 461 kts 246°
2026-05-07 09:56 24.00010 114.04154 29697 ft 462 kts 245°
2026-05-07 09:56 23.98502 114.01046 29172 ft 462 kts 245°
2026-05-07 09:57 23.96996 113.97939 28637 ft 462 kts 245°
2026-05-07 09:57 23.95489 113.94828 28129 ft 464 kts 245°
2026-05-07 09:57 23.93971 113.91702 27628 ft 465 kts 245°
2026-05-07 09:57 23.92476 113.88623 27148 ft 466 kts 245°
2026-05-07 09:58 23.90955 113.85490 26702 ft 466 kts 245°
2026-05-07 09:58 23.89433 113.82364 26320 ft 466 kts 245°
2026-05-07 09:58 23.87909 113.79229 25943 ft 467 kts 244°
2026-05-07 09:58 23.86386 113.76095 25575 ft 467 kts 244°
2026-05-07 09:59 23.84862 113.72969 25205 ft 466 kts 244°
2026-05-07 09:59 23.83338 113.69851 24844 ft 465 kts 244°
2026-05-07 09:59 23.81824 113.66791 24494 ft 464 kts 242°
2026-05-07 09:59 23.79983 113.63896 24139 ft 465 kts 233°
2026-05-07 10:00 23.77746 113.61345 23795 ft 466 kts 225°
2026-05-07 10:00 23.75169 113.59202 23442 ft 467 kts 216°
2026-05-07 10:00 23.72418 113.57327 23015 ft 465 kts 215°
2026-05-07 10:00 23.69686 113.55473 22601 ft 461 kts 215°
2026-05-07 10:01 23.66966 113.53627 22194 ft 459 kts 215°
2026-05-07 10:01 23.64266 113.51795 21801 ft 456 kts 215°
2026-05-07 10:01 23.61572 113.49988 21402 ft 454 kts 213°
2026-05-07 10:01 23.58757 113.48514 21018 ft 455 kts 205°
2026-05-07 10:02 23.55733 113.47487 20634 ft 456 kts 197°
2026-05-07 10:02 23.52664 113.46658 20249 ft 453 kts 197°
2026-05-07 10:02 23.49609 113.45831 19886 ft 451 kts 197°
2026-05-07 10:02 23.46574 113.45010 19513 ft 448 kts 197°
2026-05-07 10:03 23.43564 113.44194 19150 ft 445 kts 197°
2026-05-07 10:03 23.40564 113.43378 18780 ft 442 kts 197°
2026-05-07 10:03 23.37590 113.42568 18427 ft 440 kts 197°
2026-05-07 10:03 23.34622 113.41761 18064 ft 438 kts 197°
2026-05-07 10:04 23.31681 113.40964 17648 ft 431 kts 197°
2026-05-07 10:04 23.28851 113.40200 17248 ft 418 kts 197°
2026-05-07 10:04 23.26063 113.39448 16853 ft 408 kts 197°
2026-05-07 10:04 23.23360 113.38722 16457 ft 389 kts 197°
2026-05-07 10:05 23.20806 113.38038 16075 ft 368 kts 197°
2026-05-07 10:05 23.18351 113.37520 15693 ft 354 kts 185°
2026-05-07 10:05 23.15929 113.37871 15315 ft 355 kts 163°
2026-05-07 10:05 23.13746 113.39136 14942 ft 358 kts 148°
2026-05-07 10:06 23.11724 113.40703 14572 ft 357 kts 146°
2026-05-07 10:06 23.09761 113.42257 14210 ft 347 kts 146°
2026-05-07 10:06 23.07850 113.43778 13848 ft 334 kts 146°
2026-05-07 10:06 23.06025 113.45267 13465 ft 323 kts 142°
2026-05-07 10:07 23.04631 113.47128 13066 ft 318 kts 117°
2026-05-07 10:07 23.04058 113.49422 12666 ft 316 kts 92°
2026-05-07 10:07 23.04086 113.51802 12272 ft 315 kts 87°
2026-05-07 10:07 23.04207 113.54175 11886 ft 316 kts 86°
2026-05-07 10:08 23.04340 113.56533 11497 ft 317 kts 86°
2026-05-07 10:08 23.04477 113.58931 11126 ft 319 kts 86°
2026-05-07 10:08 23.04619 113.61336 10744 ft 319 kts 86°
2026-05-07 10:08 23.04762 113.63746 10378 ft 320 kts 86°
2026-05-07 10:09 23.04909 113.66155 10008 ft 321 kts 86°
2026-05-07 10:09 23.05058 113.68574 9630 ft 321 kts 86°
2026-05-07 10:09 23.05206 113.70960 9227 ft 321 kts 86°
2026-05-07 10:09 23.05358 113.73374 8833 ft 321 kts 85°
2026-05-07 10:10 23.05868 113.75713 8435 ft 319 kts 64°
2026-05-07 10:10 23.07182 113.77621 8044 ft 316 kts 39°
2026-05-07 10:10 23.09072 113.78740 7798 ft 306 kts 13°
2026-05-07 10:10 23.11104 113.79166 7789 ft 290 kts
2026-05-07 10:11 23.13062 113.79485 7800 ft 281 kts
2026-05-07 10:11 23.14970 113.79786 7799 ft 281 kts
2026-05-07 10:11 23.16891 113.79871 7797 ft 270 kts 349°
2026-05-07 10:11 23.18602 113.79245 7797 ft 252 kts 327°
2026-05-07 10:12 23.19890 113.78073 7798 ft 234 kts 306°
2026-05-07 10:12 23.20682 113.76569 7797 ft 228 kts 287°
2026-05-07 10:12 23.20960 113.74892 7799 ft 226 kts 268°
2026-05-07 10:12 23.20730 113.73244 7796 ft 224 kts 251°
2026-05-07 10:13 23.20233 113.71638 7796 ft 224 kts 251°
2026-05-07 10:13 23.19739 113.70031 7796 ft 224 kts 251°
2026-05-07 10:13 23.19247 113.68424 7797 ft 224 kts 251°
2026-05-07 10:13 23.18757 113.66815 7798 ft 224 kts 251°
2026-05-07 10:14 23.18268 113.65207 7794 ft 224 kts 251°
2026-05-07 10:14 23.17777 113.63600 7796 ft 224 kts 251°
2026-05-07 10:14 23.17292 113.62012 7795 ft 224 kts 251°
2026-05-07 10:14 23.16800 113.60404 7794 ft 224 kts 251°
2026-05-07 10:15 23.16308 113.58799 7797 ft 224 kts 251°
2026-05-07 10:15 23.15814 113.57189 7789 ft 224 kts 252°
2026-05-07 10:15 23.15320 113.55579 7788 ft 224 kts 251°
2026-05-07 10:15 23.14825 113.53966 7794 ft 225 kts 252°
2026-05-07 10:16 23.14332 113.52351 7796 ft 225 kts 252°
2026-05-07 10:16 23.13844 113.50759 7794 ft 225 kts 251°
2026-05-07 10:16 23.13350 113.49144 7792 ft 225 kts 251°
2026-05-07 10:16 23.12856 113.47528 7796 ft 225 kts 251°
2026-05-07 10:17 23.12362 113.45913 7794 ft 225 kts 251°
2026-05-07 10:17 23.11865 113.44299 7796 ft 225 kts 251°
2026-05-07 10:17 23.11369 113.42690 7797 ft 224 kts 251°
2026-05-07 10:17 23.10876 113.41086 7794 ft 224 kts 251°
2026-05-07 10:18 23.10389 113.39501 7794 ft 224 kts 251°
2026-05-07 10:18 23.09883 113.37906 7794 ft 223 kts 247°
2026-05-07 10:18 23.09114 113.36439 7792 ft 224 kts 233°
2026-05-07 10:18 23.08030 113.35227 7838 ft 225 kts 220°
2026-05-07 10:19 23.06695 113.34327 7859 ft 228 kts 206°
2026-05-07 10:19 23.05182 113.33796 7871 ft 230 kts 196°
2026-05-07 10:19 23.03628 113.33381 7869 ft 229 kts 196°
2026-05-07 10:19 23.02100 113.32973 7878 ft 229 kts 196°
2026-05-07 10:20 23.00549 113.32559 7868 ft 229 kts 196°
2026-05-07 10:20 22.99000 113.32145 7872 ft 229 kts 196°
2026-05-07 10:20 22.97452 113.31730 7869 ft 229 kts 197°
2026-05-07 10:20 22.95903 113.31311 7881 ft 230 kts 197°
2026-05-07 10:21 22.94352 113.30892 7876 ft 229 kts 197°
2026-05-07 10:21 22.92813 113.30449 7870 ft 228 kts 204°
2026-05-07 10:21 22.91585 113.29471 7877 ft 223 kts 236°
2026-05-07 10:21 22.91067 113.27918 7880 ft 223 kts 269°
2026-05-07 10:22 22.91328 113.26261 7879 ft 225 kts 283°
2026-05-07 10:22 22.91715 113.24612 7878 ft 225 kts 282°
2026-05-07 10:22 22.92098 113.22964 7881 ft 225 kts 282°
2026-05-07 10:22 22.92502 113.21321 7876 ft 226 kts 289°
2026-05-07 10:23 22.93447 113.19976 7868 ft 231 kts 325°
2026-05-07 10:23 22.94978 113.19483 7677 ft 242 kts
2026-05-07 10:23 22.96655 113.19813 7323 ft 247 kts 11°
2026-05-07 10:23 22.98327 113.20269 6990 ft 249 kts 13°
2026-05-07 10:24 23.00004 113.20747 6691 ft 249 kts 13°
2026-05-07 10:24 23.01677 113.21223 6402 ft 248 kts 13°
2026-05-07 10:24 23.03343 113.21691 6111 ft 247 kts 13°
2026-05-07 10:24 23.05007 113.22151 5816 ft 246 kts 13°
2026-05-07 10:25 23.06662 113.22604 5525 ft 245 kts 13°
2026-05-07 10:25 23.08310 113.23051 5246 ft 243 kts 13°
2026-05-07 10:25 23.09944 113.23492 4967 ft 242 kts 13°
2026-05-07 10:25 23.11551 113.23925 4694 ft 241 kts 13°
2026-05-07 10:26 23.13164 113.24359 4495 ft 235 kts 13°
2026-05-07 10:26 23.14749 113.24786 4294 ft 233 kts 13°
2026-05-07 10:26 23.16319 113.25208 4011 ft 232 kts 14°
2026-05-07 10:26 23.17890 113.25631 3709 ft 232 kts 14°
2026-05-07 10:27 23.19456 113.26052 3420 ft 232 kts 14°
2026-05-07 10:27 23.21019 113.26473 3125 ft 228 kts 14°
2026-05-07 10:27 23.22502 113.26873 2830 ft 218 kts 14°
2026-05-07 10:27 23.23943 113.27261 2565 ft 208 kts 14°
2026-05-07 10:28 23.25314 113.27630 2318 ft 197 kts 14°
2026-05-07 10:28 23.26613 113.27980 2050 ft 187 kts 14°
2026-05-07 10:28 23.27856 113.28315 1809 ft 181 kts 14°
2026-05-07 10:28 23.29021 113.28629 1602 ft 164 kts 15°
2026-05-07 10:29 23.30094 113.28919 1376 ft 155 kts 15°
2026-05-07 10:29 23.31116 113.29195 1194 ft 152 kts 15°
2026-05-07 10:29 23.32139 113.29471 1008 ft 151 kts 14°
2026-05-07 10:30 23.34155 113.30013 630 ft 148 kts 14°
2026-05-07 10:30 23.35146 113.30280 427 ft 146 kts 15°
2026-05-07 10:30 23.36129 113.30548 262 ft 146 kts 14°
2026-05-07 10:30 23.37096 113.30807 82 ft 145 kts 14°
2026-05-07 10:31 23.38003 113.31048 94 ft 136 kts 14°
2026-05-07 10:31 23.38982 113.31298 666 ft 150 kts 14°
2026-05-07 10:31 23.40001 113.31572 1363 ft 149 kts 14°
2026-05-07 10:31 23.41049 113.31853 1562 ft 167 kts 14°
2026-05-07 10:32 23.42240 113.32174 1687 ft 186 kts 14°
2026-05-07 10:32 23.43564 113.32532 1806 ft 207 kts 14°
2026-05-07 10:32 23.45022 113.32928 2027 ft 221 kts 14°
2026-05-07 10:32 23.46524 113.33336 2429 ft 223 kts 14°
2026-05-07 10:33 23.48037 113.33746 2853 ft 225 kts 14°
2026-05-07 10:33 23.49563 113.34161 3279 ft 227 kts 14°
2026-05-07 10:33 23.51098 113.34578 3691 ft 229 kts 14°
2026-05-07 10:33 23.52646 113.34999 4145 ft 230 kts 13°
2026-05-07 10:34 23.54185 113.35432 4586 ft 232 kts 18°
2026-05-07 10:34 23.55537 113.36380 4967 ft 235 kts 51°
2026-05-07 10:34 23.56227 113.37968 5338 ft 234 kts 83°
2026-05-07 10:34 23.56244 113.39749 5788 ft 238 kts 97°
2026-05-07 10:35 23.56018 113.41537 5875 ft 237 kts 103°
2026-05-07 10:35 23.55657 113.43283 5886 ft 236 kts 105°
2026-05-07 10:35 23.55258 113.45007 5889 ft 234 kts 106°
2026-05-07 10:35 23.54852 113.46725 5896 ft 234 kts 106°
2026-05-07 10:36 23.54452 113.48419 5890 ft 233 kts 108°
2026-05-07 10:36 23.53709 113.49951 5897 ft 229 kts 137°
2026-05-07 10:36 23.52361 113.50784 5899 ft 223 kts 171°
2026-05-07 10:36 23.50836 113.50715 5905 ft 220 kts 194°
2026-05-07 10:37 23.49373 113.50231 5894 ft 220 kts 200°
2026-05-07 10:37 23.47922 113.49684 5896 ft 221 kts 200°
2026-05-07 10:37 23.46470 113.49128 5892 ft 221 kts 200°
2026-05-07 10:37 23.45019 113.48573 5888 ft 221 kts 200°
2026-05-07 10:38 23.43565 113.48017 5886 ft 221 kts 200°
2026-05-07 10:38 23.42114 113.47462 5885 ft 221 kts 200°
2026-05-07 10:38 23.40681 113.46915 5892 ft 222 kts 200°
2026-05-07 10:38 23.39226 113.46357 5896 ft 222 kts 200°
2026-05-07 10:39 23.37772 113.45800 5887 ft 221 kts 200°
2026-05-07 10:39 23.36321 113.45244 5891 ft 221 kts 200°
2026-05-07 10:39 23.34870 113.44686 5889 ft 221 kts 200°
2026-05-07 10:39 23.33418 113.44131 5897 ft 222 kts 200°
2026-05-07 10:40 23.31959 113.43575 5886 ft 222 kts 200°
2026-05-07 10:40 23.30505 113.43020 5878 ft 221 kts 200°
2026-05-07 10:40 23.29073 113.42477 5891 ft 220 kts 200°
2026-05-07 10:40 23.27630 113.41928 5882 ft 220 kts 200°
2026-05-07 10:41 23.26185 113.41379 5888 ft 220 kts 200°
2026-05-07 10:41 23.24742 113.40832 5883 ft 220 kts 200°
2026-05-07 10:41 23.23296 113.40280 5887 ft 221 kts 200°
2026-05-07 10:41 23.21850 113.39728 5887 ft 220 kts 201°
2026-05-07 10:42 23.20410 113.39178 5887 ft 220 kts 201°
2026-05-07 10:42 23.18979 113.38632 5890 ft 216 kts 201°
2026-05-07 10:42 23.17572 113.38098 5894 ft 217 kts 200°
2026-05-07 10:42 23.16146 113.37558 5885 ft 217 kts 200°
2026-05-07 10:43 23.14720 113.37017 5890 ft 217 kts 200°
2026-05-07 10:43 23.13299 113.36470 5895 ft 216 kts 203°
2026-05-07 10:43 23.12121 113.35511 5879 ft 214 kts 236°
2026-05-07 10:43 23.11652 113.33995 5743 ft 215 kts 269°
2026-05-07 10:44 23.11989 113.32460 5569 ft 217 kts 289°
2026-05-07 10:44 23.12627 113.30970 5373 ft 218 kts 295°
2026-05-07 10:44 23.13343 113.29520 5173 ft 218 kts 296°
2026-05-07 10:44 23.14068 113.28080 4816 ft 217 kts 296°
2026-05-07 10:45 23.14793 113.26642 4435 ft 217 kts 296°
2026-05-07 10:45 23.15685 113.25332 4055 ft 218 kts 323°
2026-05-07 10:45 23.16613 113.24930 3870 ft 219 kts 354°
2026-05-07 10:45 23.18517 113.25596 3594 ft 220 kts 32°
2026-05-07 10:46 23.19908 113.26231 3329 ft 216 kts 14°
2026-05-07 10:46 23.21362 113.26590 3059 ft 213 kts 13°
2026-05-07 10:46 23.22791 113.26955 2780 ft 209 kts 14°
2026-05-07 10:46 23.23722 113.27203 2613 ft 207 kts 14°
2026-05-07 10:47 23.25116 113.27577 2334 ft 205 kts 14°
2026-05-07 10:47 23.26492 113.27948 2075 ft 202 kts 14°
2026-05-07 10:47 23.28243 113.28420 1734 ft 188 kts 15°
2026-05-07 10:47 23.29441 113.28742 1523 ft 166 kts 15°
2026-05-07 10:48 23.30520 113.29033 1300 ft 155 kts 15°
2026-05-07 10:48 23.31206 113.29219 1166 ft 152 kts 15°
2026-05-07 10:48 23.32224 113.29493 987 ft 149 kts 14°
2026-05-07 10:48 23.33565 113.29854 745 ft 148 kts 15°
2026-05-07 10:49 23.34224 113.30029 621 ft 147 kts 16°
2026-05-07 10:49 23.35207 113.30297 428 ft 145 kts 15°
2026-05-07 10:49 23.36194 113.30563 266 ft 145 kts 14°
2026-05-07 10:49 23.37173 113.30829 87 ft 145 kts 16°
2026-05-07 10:50 23.38045 113.31065 53 ft 111 kts 13°
2026-05-07 10:50 23.38628 113.31223 52 ft 62 kts 14°
2026-05-07 10:50 23.38904 113.31295 53 ft 30 kts 11°
2026-05-07 10:50 23.39104 113.31278 55 ft 28 kts 345°
2026-05-07 10:51 23.39276 113.31230 53 ft 16 kts 346°
2026-05-07 10:51 23.39392 113.31227 54 ft 18 kts 15°
2026-05-07 10:51 23.39571 113.31277 53 ft 22 kts 14°
2026-05-07 10:51 23.39672 113.31304 57 ft 16 kts 14°
2026-05-07 10:52 23.39772 113.31330 50 ft 16 kts 13°
2026-05-07 10:52 23.39930 113.31373 52 ft 20 kts 14°
2026-05-07 10:52 23.40025 113.31399 54 ft 22 kts 14°
2026-05-07 10:52 23.40179 113.31440 54 ft 23 kts 13°
2026-05-07 10:53 23.40277 113.31467 53 ft 11 kts 14°
2026-05-07 10:53 23.40331 113.31421 58 ft 12 kts 283°
2026-05-07 10:53 23.40362 113.31276 52 ft 18 kts 284°
2026-05-07 10:53 23.40383 113.31185 58 ft 18 kts 283°
2026-05-07 10:54 23.40415 113.31043 57 ft 21 kts 284°
2026-05-07 10:54 23.40451 113.30887 55 ft 22 kts 284°
2026-05-07 10:54 23.40490 113.30715 56 ft 25 kts 284°
2026-05-07 10:54 23.40524 113.30567 55 ft 12 kts 284°
2026-05-07 10:55 23.40500 113.30489 58 ft 13 kts 206°
2026-05-07 10:55 23.40416 113.30433 51 ft 16 kts 228°
2026-05-07 10:55 23.40339 113.30348 54 ft 16 kts 225°
2026-05-07 10:55 23.40314 113.30254 59 ft 15 kts 287°
2026-05-07 10:56 23.40340 113.30139 59 ft 16 kts 283°
2026-05-07 10:56 23.40361 113.30048 52 ft 9 kts 282°
2026-05-07 10:56 23.40328 113.30030 59 ft 7 kts 194°
2026-05-07 10:56 23.40275 113.30016 54 ft 9 kts 194°
2026-05-07 10:57 23.40212 113.29999 59 ft 3 kts 194°
2026-05-07 10:57 23.40209 113.29998 59 ft 0 kts 194°